sim
Sign-in with your pilot id or email,
or register
Callsign
Passwort

Schedule Details

Flight Number: RYR1003 (2)
Departure: Warsaw Modlin Airport (EPMO) at 19:30
Arrival: Thessaloniki International Airport (LGTS) at 21:45
Route: Ryanair Passenger Schedule. Enter filed route here before submitting Pirep.

Weather Information
Getting current METAR information for EPMO 202330Z 32007KT CAVOK 08/00 Q1025
Getting current METAR information for LGTS 202320Z 11005KT 9999 SCT025 09/07 Q1027 NOSIG

Schedule Frequency

Route Map